Weather History for KDEH - May, 2013

Change the Weather History Date:

Friday, May 17, 2013

  Actual Average Record
Temperature  
Mean Temperature 58 °F -  
Max Temperature 69 °F 73 °F 90 °F (1987)
Min Temperature 48 °F 48 °F -99 °F (2000)
Degree Days  
Heating Degree Days 6    
Growing Degree Days 8 (Base 50)    
Moisture  
Dew Point 54 °F    
Average Humidity 80    
Maximum Humidity 100    
Minimum Humidity 40    
Precipitation  
Precipitation 0.91 in - - ()
Sea Level Pressure  
Sea Level Pressure 29.97 in    
Wind  
Wind Speed 10 mph (East)    
Max Wind Speed 17 mph    
Max Gust Speed 21 mph    
Visibility 9 miles    
Events Rain    
Averages and records for this station are not official NWS values.
T = Trace of Precipitation, MM = Missing Value Source: NWS Daily Summary

Daily Weather History Graph

Daily Weather History Graph

Search for Another Location

Airport or City:

Trip Planner

Search our weather history database for the weather conditions in past years. The results will help you decide how hot, cold, wet, or windy it might be!

Date:

Astronomy

May. 17, 2013 Rise Set
Actual Time 5:40 AM CDT 8:26 PM CDT
Civil Twilight 5:07 AM CDT 8:59 PM CDT
Nautical Twilight 4:25 AM CDT 9:41 PM CDT
Astronomical Twilight 3:37 AM CDT 10:30 PM CDT
Moon 12:18 PM CDT (5/17) 1:15 AM CDT (5/17)
Length of Visible Light 15h 52m
Length of Day
14h 46m
Waxing Crescent, 45% of the Moon is Illuminated
May 17
Waxing Crescent
May 17
First Quarter
May 24
Full
May 31
Last Quarter
Jun 8
New

Hourly Weather History & Observations

Time (CDT) Temp. Dew Point Humidity Pressure Visibility Wind Dir Wind Speed Gust Speed Precip Events Conditions
12:15 AM 69.8 °F 44.6 °F 40% 29.88 in 10.0 mi SE 5.8 mph - N/A   Overcast
12:35 AM 69.8 °F 44.6 °F 40% 29.88 in - SE 5.8 mph - N/A   Overcast
12:55 AM 69.8 °F 44.6 °F 40% 29.89 in 10.0 mi ESE 11.5 mph - N/A   Overcast
1:15 AM 68.0 °F 44.6 °F 43% 29.90 in 10.0 mi Variable 6.9 mph - N/A   Overcast
1:35 AM 66.2 °F 48.2 °F 52% 29.90 in 10.0 mi East 10.4 mph - N/A   Light Drizzle
1:55 AM 66.2 °F 48.2 °F 52% 29.90 in 10.0 mi East 8.1 mph 13.8 mph N/A   Light Drizzle
2:15 AM 64.4 °F 50.0 °F 59% 29.91 in 10.0 mi ESE 10.4 mph - N/A Rain Light Rain
2:35 AM 62.6 °F 51.8 °F 68% 29.89 in 9.0 mi ESE 13.8 mph - N/A Rain Light Rain
2:55 AM 60.8 °F 51.8 °F 72% 29.91 in - ESE 10.4 mph 18.4 mph N/A   Unknown
3:15 AM 60.8 °F 50.0 °F 68% 29.91 in 10.0 mi ESE 11.5 mph - N/A   Light Drizzle
3:35 AM 60.8 °F 50.0 °F 68% 29.93 in - ESE 9.2 mph - N/A   Unknown
3:55 AM 57.2 °F 51.8 °F 82% 29.93 in 6.0 mi ESE 11.5 mph - N/A Rain Light Rain
4:15 AM 55.4 °F 51.8 °F 88% 29.92 in 3.0 mi East 16.1 mph - N/A Rain Light Rain
4:35 AM 55.4 °F 51.8 °F 88% 29.95 in 9.0 mi East 10.4 mph - N/A Rain Light Rain
4:55 AM 53.6 °F 51.8 °F 94% 29.95 in 4.0 mi East 11.5 mph - 0.21 in Rain Light Rain
5:15 AM 53.6 °F 51.8 °F 94% 29.96 in - ENE 11.5 mph - N/A   Unknown
5:35 AM 51.8 °F 51.8 °F 100% 29.97 in 2.0 mi ENE 9.2 mph - N/A Rain Heavy Rain
5:55 AM 51.8 °F 50.0 °F 94% 29.97 in 10.0 mi East 9.2 mph 20.7 mph 0.31 in Rain Light Rain
6:15 AM 51.8 °F 50.0 °F 94% 29.99 in 9.0 mi North 10.4 mph - N/A   Overcast
6:35 AM 50.0 °F 50.0 °F 100% 30.01 in 2.5 mi ENE 9.2 mph 17.3 mph N/A Rain Rain
7:15 AM 50.0 °F 50.0 °F 100% 30.01 in 1.8 mi NE 9.2 mph - N/A Rain Heavy Rain
7:35 AM 50.0 °F 50.0 °F 100% 30.03 in 3.0 mi North 10.4 mph - N/A Rain Rain
7:55 AM 48.2 °F 48.2 °F 100% 30.01 in 1.5 mi ENE 17.3 mph - 0.29 in Rain Heavy Rain
8:15 AM 50.0 °F 48.2 °F 94% 30.01 in 2.0 mi East 9.2 mph 16.1 mph N/A Rain Rain
8:35 AM 50.0 °F 50.0 °F 100% 30.00 in 5.0 mi ENE 12.7 mph - N/A Rain Light Rain
8:55 AM 50.0 °F 50.0 °F 100% 30.00 in 10.0 mi East 11.5 mph - 0.10 in   Scattered Clouds
9:15 AM 51.8 °F 50.0 °F 94% 30.00 in 10.0 mi East 11.5 mph 17.3 mph N/A   Scattered Clouds
9:35 AM 51.8 °F 50.0 °F 94% 30.00 in 10.0 mi East 10.4 mph - N/A   Mostly Cloudy
9:55 AM 51.8 °F 50.0 °F 94% 30.00 in - ENE 8.1 mph - N/A   Unknown
10:15 AM 51.8 °F 50.0 °F 94% 30.01 in 10.0 mi ENE 9.2 mph - N/A   Partly Cloudy
10:35 AM 53.6 °F 51.8 °F 94% 30.01 in 10.0 mi ESE 12.7 mph - N/A   Scattered Clouds
10:55 AM 55.4 °F 51.8 °F 88% 30.00 in 10.0 mi East 12.7 mph 19.6 mph N/A   Light Drizzle
11:15 AM 55.4 °F 51.8 °F 88% 30.00 in 10.0 mi ESE 15.0 mph - N/A Rain Light Rain
11:35 AM 57.2 °F 51.8 °F 82% 30.00 in 10.0 mi ESE 10.4 mph 18.4 mph N/A   Light Drizzle
11:55 AM 57.2 °F 53.6 °F 88% 30.00 in 10.0 mi ESE 8.1 mph 13.8 mph N/A   Light Drizzle
12:15 PM 57.2 °F 53.6 °F 88% 30.00 in 10.0 mi ESE 12.7 mph - N/A   Light Drizzle
12:35 PM 57.2 °F 53.6 °F 88% 30.00 in 10.0 mi East 9.2 mph 18.4 mph N/A   Light Drizzle
12:55 PM 59.0 °F 53.6 °F 82% 30.00 in 10.0 mi East 8.1 mph - N/A   Partly Cloudy
1:15 PM 60.8 °F 55.4 °F 82% 30.00 in 10.0 mi East 8.1 mph - N/A   Clear
1:35 PM 62.6 °F 55.4 °F 77% 29.98 in 10.0 mi East 9.2 mph 16.1 mph N/A   Clear
2:15 PM 64.4 °F 55.4 °F 73% 29.98 in 10.0 mi East 12.7 mph - N/A   Clear
2:35 PM 64.4 °F 57.2 °F 77% 29.98 in 10.0 mi East 10.4 mph - N/A   Clear
2:55 PM 66.2 °F 57.2 °F 73% 29.98 in 10.0 mi East 11.5 mph - N/A   Clear
3:15 PM 68.0 °F 59.0 °F 73% 29.98 in 10.0 mi East 9.2 mph 16.1 mph N/A   Clear
3:35 PM 68.0 °F 59.0 °F 73% 29.97 in 10.0 mi East 11.5 mph - N/A   Clear
3:55 PM 68.0 °F 59.0 °F 73% 29.96 in 10.0 mi East 13.8 mph - N/A   Clear
4:15 PM 68.0 °F 59.0 °F 73% 29.96 in 10.0 mi East 15.0 mph - N/A   Light Drizzle
4:35 PM 68.0 °F 59.0 °F 73% 29.96 in 10.0 mi East 11.5 mph - N/A   Light Drizzle
4:55 PM 69.8 °F 59.0 °F 68% 29.96 in 10.0 mi East 11.5 mph - N/A   Clear
5:15 PM 69.8 °F 60.8 °F 73% 29.95 in 10.0 mi East 13.8 mph - N/A   Clear
5:35 PM 69.8 °F 60.8 °F 73% 29.95 in 10.0 mi ENE 11.5 mph - N/A   Clear
5:55 PM 68.0 °F 60.8 °F 78% 29.95 in 10.0 mi East 12.7 mph - N/A   Partly Cloudy
6:15 PM 69.8 °F 60.8 °F 73% 29.95 in 10.0 mi East 11.5 mph - N/A   Partly Cloudy
6:35 PM 68.0 °F 60.8 °F 78% 29.95 in 10.0 mi East 9.2 mph 17.3 mph N/A   Clear
6:55 PM 68.0 °F 60.8 °F 78% 29.95 in 10.0 mi East 13.8 mph - N/A   Light Drizzle
7:15 PM 66.2 °F 59.0 °F 78% 29.95 in 10.0 mi ESE 12.7 mph 19.6 mph N/A   Light Drizzle
7:35 PM 66.2 °F 59.0 °F 78% 29.96 in 10.0 mi East 12.7 mph - N/A   Light Drizzle
7:55 PM 66.2 °F 59.0 °F 78% 29.97 in 10.0 mi East 9.2 mph - N/A   Light Drizzle
8:15 PM 64.4 °F 59.0 °F 83% 29.96 in 10.0 mi East 11.5 mph - N/A   Light Drizzle
8:35 PM 64.4 °F 59.0 °F 83% 29.96 in 10.0 mi East 11.5 mph - N/A   Light Drizzle
8:55 PM 64.4 °F 57.2 °F 77% 29.97 in 10.0 mi East 11.5 mph - N/A   Light Drizzle
9:15 PM 62.6 °F 57.2 °F 82% 29.97 in 10.0 mi East 11.5 mph - N/A   Light Drizzle
9:35 PM 62.6 °F 57.2 °F 82% 29.97 in 10.0 mi ESE 12.7 mph - N/A   Light Drizzle
9:55 PM 62.6 °F 57.2 °F 82% 29.97 in 10.0 mi ESE 12.7 mph 19.6 mph N/A   Light Drizzle
10:15 PM - - N/A% - 10.0 mi North - - N/A   Light Drizzle
10:35 PM 62.6 °F 55.4 °F 77% 29.97 in 10.0 mi ESE 12.7 mph 18.4 mph N/A   Light Drizzle
10:55 PM 60.8 °F 55.4 °F 82% 29.99 in 10.0 mi ESE 10.4 mph - N/A   Light Drizzle
11:35 PM 60.8 °F 53.6 °F 77% 30.00 in 10.0 mi East 6.9 mph - N/A   Light Drizzle
11:55 PM 60.8 °F 53.6 °F 77% 30.00 in 10.0 mi ESE 8.1 mph - N/A   Light Drizzle